Location: Arroyo Grande
(40.2671°N, 4.2512°W)
Time: 06:05:14
(UTC+00:00)

Atlas Centaur 2 - Pass Details

Date: 03 February 2023
Orbit: 459 x 1295 km, 30.4° (Epoch: 25 March)

Event Time Altitude Azimuth Distance (km) Brightness Sun altitude
Rises 18:02:32 0° 221° (SW) 3,950 6.8 -5.3°
Reaches altitude 10° 18:05:43 10° 209° (SSW) 3,099 5.9 -5.9°
Maximum altitude 18:11:59 26° 157° (SSE) 2,255 4.4 -7.1°
Drops below altitude 10° 18:18:38 10° 105° (ESE) 3,304 4.7 -8.3°
Enters shadow 18:19:57 - 100° (E) 3,652 4.9 -8.5°
